User: anonymous   Login
Location: Unspecified
(0.0000°N, 0.0000°E)
Time: 22:22:37
(UTC+00:00)
Language:

CERISE - Orbit

View from above orbital plane
View from above orbital plane
View from above satellite
View from above satellite

Ground track
Ground track

The orbit data is extracted from the following two-line orbital elements,

1 23606U 95033B   23083.42400709  .00015698  00000-0  12970-2 0  9999
2 23606  98.2336 178.3082 0003526 211.3313 148.7699 14.99045508501453
Epoch (UTC): 24 March 2023 10:10:34
Eccentricity: 0.0003526
inclination: 98.2336°
perigee height: 567 km
apogee height: 572 km
right ascension of ascending node: 178.3082°
argument of perigee: 211.3313°
revolutions per day: 14.99045508
mean anomaly at epoch: 148.7699°
orbit number at epoch: 50145

The dashed part of the orbit path shows where the satellite is in the earth's shadow,  

DLR